Regional Weather Roundup
Issued by NWS Jackson, KY

Home | Current Version | Previous Version | Graphics & Text | Print | Product List | Glossary On
Versions: 1 2 3 4 5 6 7 8 9 10 11 12 13 14 15 16 17 18 19 20 21 22 23 24 25 26 27 28 29 30 31 32 33 34 35 36 37 38 39 40 41 42 43 44 45 46 47 48 49 50
675
ASUS43 KJKL 162110
RWRJKL

EAST KENTUCKY HOURLY WEATHER ROUNDUP
NATIONAL WEATHER SERVICE JACKSON KY
400 PM EST MON JAN 16 2017

NOTE: "FAIR" INDICATES FEW OR NO CLOUDS BELOW 12,000 FEET WITH
NO SIGNIFICANT WEATHER AND/OR OBSTRUCTIONS TO VISIBILITY.

* THESE REPORTS ARE NOT UNDER NWS QUALITY CONTROL AND MAY NOT
  REPORT WEATHER SUCH AS PRECIPITATION AND FOG.

KYZ079-080-083-085-087-088-110-112-115-119-120-162200
...EASTERN KENTUCKY...

CITY           SKY/WX    TMP DP  RH WIND       PRES   REMARKS
JACKSON        CLOUDY    65  50  58 S7        30.18F
LONDON         MOSUNNY   64  49  57 S6        30.18F
SOMERSET*      CLOUDY    63  50  63 S3        30.18S
MONTICELLO*    CLOUDY    66  53  63 SE8       30.17F
WILLIAMSBURG*  MOCLDY    64  54  68 SE10      30.19S
MIDDLESBORO*   CLOUDY    63  53  69 S6        30.22F
HARLAN APT*    CLOUDY    63  48  59 CALM      30.22S
PIKE CO APT*     N/A     64  52  65 S6        30.20F
BIG SANDY APT* CLOUDY    64  55  74 E3        30.19F
MOREHEAD APT*  CLOUDY    59  52  77 SE3       30.19F
ASHLAND*       CLOUDY    54  48  82 SE6       30.18F
$$

KYZ035-036-041-042-044-050-067-078-099-162200
...CENTRAL KENTUCKY...

CITY           SKY/WX    TMP DP  RH WIND       PRES   REMARKS
MT STERLING*   CLOUDY    63  54  72 S3        30.18S
FLEMING/MASON* CLOUDY    56  52  84 S3        30.18S
DANVILLE*      CLOUDY    63  54  72 S3        30.17S
LEXINGTON      CLOUDY    60  53  77 S3        30.16S
FRANKFORT      CLOUDY    58  52  80 E3        30.14F
LOUISVILLE     CLOUDY    56  50  80 CALM      30.12F
LEBANON*       MOCLDY    63  54  72 S5        30.15S
GLASGOW*       CLOUDY    65  53  64 S3        30.13S
BOWLING GREEN  CLOUDY    67  55  65 SE7       30.11F
$$

KYZ091>093-OHZ055-061-077-WVZ005-015-034-035-042-162200
...SOUTHERN OHIO/WEST VIRGINIA...

CITY           SKY/WX    TMP DP  RH WIND       PRES   REMARKS
COVINGTON      CLOUDY    50  48  93 SE6       30.15F FOG
COLUMBUS       CLOUDY    47  43  86 SE5       30.20F
DAYTON         CLOUDY    47  45  93 SE7       30.16F
WILMINGTON     CLOUDY    50  48  93 E5        30.16F
HUNTINGTON     CLOUDY    54  48  80 E5        30.19F
CHARLESTON     PTSUNNY   58  50  75 CALM      30.21S
BECKLEY        CLOUDY    59  49  69 W7        30.24S
BLUEFIELD      PTSUNNY   58  47  66 W8        30.26R
LOGAN CO APT*  MOCLDY    63  54  72 CALM      30.21F
$$

VAZ002-007-008-TNZ017-027-036-066-071-162200
...SOUTHWEST VIRGINIA/EAST TENNESSEE...

CITY           SKY/WX    TMP DP  RH WIND       PRES   REMARKS
WISE*          CLOUDY    61  46  59 CALM      30.26F
JONESVILLE*    CLOUDY    64  52  63 W3        30.24F
ABINGDON*      MOSUNNY   66  47  50 W7        30.25S
BRISTOL        PTSUNNY   66  46  48 SW7       30.23F
MORRISTOWN*    CLOUDY    63  57  82 CALM      30.21F
SEVIERVILLE*   CLOUDY    61  55  82 CALM      30.21F
KNOXVILLE      CLOUDY    63  53  70 CALM      30.20F
LAFOLLETTE*    CLOUDY    61  55  82 CALM      30.24S
OAK RIDGE      CLOUDY    63  53  70 CALM      30.22F
CROSSVILLE     MOSUNNY   61  51  70 S6        30.20F
NASHVILLE      CLOUDY    70  51  51 S13       30.12F
$$

...KEY TO REMARKS...
VSB - VISIBILITY IN MILES
WCI - WIND CHILL INDEX
HX  - HEAT INDEX

$$




USA.gov is the U.S. government's official web portal to all federal, state and local government web resources and services.